Theta_e
313 313 313 313 313 314 315 315 315 316 316 316 318 318 319 319 320 320 321 321 322 323 323 324 325 325 326 326 327 328 328 324 321 319 318 320 329 332 333 334 336 335 334 328 326 323 321 322 321 323 323 323 323 320 320 319 319 318 312 310 307 309 308 311 310 311 312 311 310 308 308 308 308 308 310 311 311 312 313 315 317 317 319 323 325 328 329 334
312 312 312 312 313 313 314 314 315 315 315 316 317 318 318 319 319 320 320 321 321 322 323 324 325 325 326 326 326 327 326 323 318 317 317 326 331 332 333 334 334 335 333 326 322 322 319 319 319 320 320 317 323 319 319 317 319 314 312 311 307 310 312 314 314 314 311 310 310 309 307 308 309 310 310 309 310 310 310 312 315 315 319 323 325 328 329 333
312 312 312 312 312 313 314 314 314 315 315 315 316 317 318 318 319 319 319 320 321 322 322 323 324 325 325 326 326 326 324 319 317 312 319 328 331 332 333 334 335 334 328 324 324 321 320 319 319 318 319 315 320 317 318 315 316 315 312 308 309 314 313 313 314 314 314 311 310 308 307 307 308 309 311 308 309 309 309 310 311 313 314 318 326 327 329 331
312 312 312 312 313 312 313 313 314 315 315 315 315 316 317 317 318 319 319 320 321 321 322 323 324 325 325 325 324 325 322 316 308 314 320 329 330 332 334 335 336 333 329 328 327 324 323 322 323 319 317 313 317 317 314 316 313 314 311 309 312 313 311 314 314 315 313 310 309 307 305 306 308 309 309 309 307 308 310 313 312 312 313 316 326 327 328 329
311 311 312 312 313 312 312 313 314 314 315 315 315 315 316 317 318 318 319 319 320 321 322 322 323 325 324 324 323 323 316 302 306 318 327 329 332 332 334 335 336 332 330 328 327 324 322 320 318 318 315 311 316 315 314 315 315 314 312 314 313 312 311 314 315 314 313 307 309 306 306 308 309 308 308 309 307 308 311 313 314 314 314 320 325 327 328 328
311 311 312 312 312 313 313 313 313 314 314 314 315 315 317 317 317 318 318 319 320 320 321 322 323 324 324 324 323 319 310 291 318 320 330 333 331 333 334 334 335 332 329 326 324 322 320 318 316 313 312 311 312 309 314 314 315 308 313 313 313 314 312 314 313 311 309 309 307 306 308 308 308 308 309 309 309 311 312 312 313 314 315 317 326 327 326 328
311 311 311 311 312 312 312 312 313 313 314 314 314 315 316 316 317 318 318 318 319 320 321 322 323 324 323 323 319 315 308 308 318 324 331 334 333 332 333 334 334 329 327 324 322 320 319 317 315 313 311 310 313 312 313 313 313 312 310 312 312 312 312 313 311 307 306 306 307 310 307 307 307 306 307 306 311 313 312 310 310 310 312 322 325 327 327 328
311 311 311 311 311 312 312 313 312 312 313 314 314 314 315 316 317 317 318 318 319 319 320 321 322 321 323 319 312 308 307 307 317 326 329 333 333 332 333 331 330 328 324 322 321 319 318 315 312 314 310 307 311 311 314 312 312 310 309 312 311 310 312 313 312 310 308 308 310 308 308 310 309 308 305 307 311 313 314 311 309 310 314 319 322 326 327 328
311 311 311 311 311 312 312 312 313 313 313 313 313 314 315 316 317 317 318 318 319 320 320 321 322 321 322 317 310 305 304 317 320 324 324 330 331 331 332 327 329 325 323 323 323 321 318 315 315 315 308 309 313 310 312 310 307 313 312 312 311 311 311 311 310 311 311 313 311 310 311 313 308 308 307 312 313 314 311 310 311 315 315 318 320 324 326 327
310 310 311 311 311 311 312 312 312 313 313 313 314 315 314 315 315 317 318 318 318 319 320 321 321 320 318 313 310 298 314 321 322 325 321 325 330 330 328 329 327 324 321 321 322 321 317 317 315 316 314 312 313 310 314 311 307 314 313 313 312 313 311 311 311 311 307 310 310 310 311 313 308 308 309 316 317 315 311 312 316 315 315 318 320 323 326 327
310 310 310 310 311 311 312 312 312 312 313 313 314 314 314 314 315 315 317 317 317 318 319 320 320 319 312 313 304 300 316 316 319 321 320 324 328 326 326 327 328 324 321 321 320 322 321 320 317 316 313 309 312 310 312 312 313 312 312 311 311 312 312 312 311 311 310 311 310 311 311 312 308 307 309 315 315 312 313 314 314 316 316 317 321 322 325 326
309 310 310 310 310 311 312 312 312 313 313 313 313 314 314 313 314 315 317 317 317 318 318 320 320 319 314 309 305 306 315 319 319 321 321 320 320 321 329 329 327 325 322 318 320 322 322 320 318 314 307 315 306 310 310 314 313 312 312 306 309 311 310 313 311 313 312 311 310 310 308 307 307 305 311 315 314 311 312 314 314 315 317 318 321 322 324 325
309 310 310 310 310 310 311 312 312 312 313 313 313 313 313 313 314 316 317 317 317 317 318 318 318 318 311 300 307 317 319 320 320 321 322 322 325 327 329 330 328 327 325 321 319 321 320 319 319 314 315 311 309 304 309 313 311 311 311 308 307 306 305 311 313 310 311 313 311 311 300 305 309 311 313 315 316 313 311 313 313 314 315 318 319 320 323 325
309 309 309 310 310 310 311 311 312 312 312 313 313 313 313 313 315 315 316 316 316 317 316 317 319 314 307 304 315 320 322 320 319 318 321 325 322 324 327 329 329 328 327 323 323 320 320 319 318 316 314 310 308 311 310 308 309 305 308 308 302 301 300 309 311 309 308 310 310 312 301 304 309 313 314 315 314 313 313 315 315 314 314 315 318 319 320 323
308 309 309 309 309 310 310 311 311 312 312 312 313 313 314 314 315 315 315 315 317 317 316 316 316 310 301 305 318 324 323 322 316 316 325 322 322 320 323 326 325 325 325 324 321 322 321 320 316 311 310 313 312 307 305 305 306 307 301 298 302 300 300 307 311 310 305 308 310 309 302 303 308 312 313 315 313 312 312 314 316 316 314 314 315 316 318 319
309 308 309 309 309 309 310 310 311 312 312 312 312 312 313 314 314 315 315 314 315 315 316 313 309 309 303 298 308 319 318 311 312 318 323 324 323 319 324 322 324 322 322 319 324 324 323 319 313 312 311 310 308 305 303 302 302 304 300 298 299 301 300 302 307 310 310 309 307 308 301 305 306 312 315 313 312 311 311 312 314 315 316 315 314 315 316 318
309 309 309 309 309 309 310 310 311 311 312 312 312 312 313 313 314 315 314 313 313 315 313 306 310 311 294 309 315 308 309 314 320 317 320 324 323 324 321 319 317 317 319 318 320 320 318 315 312 311 312 308 307 305 299 296 296 298 302 297 301 298 300 298 304 307 310 309 305 307 304 303 307 310 311 310 311 311 310 311 313 314 315 315 316 315 315 316
308 309 309 309 309 309 309 310 310 311 311 311 311 311 311 312 312 311 311 310 312 311 311 312 309 303 298 309 299 304 314 313 315 317 320 321 324 324 321 316 317 316 316 313 314 311 313 307 311 303 307 305 305 302 295 290 295 296 297 296 297 299 300 298 299 304 307 307 305 305 304 304 307 309 311 311 310 310 311 311 312 313 313 314 314 315 315 315
309 308 309 309 309 309 309 309 310 311 311 311 310 311 310 311 309 308 306 306 301 298 294 295 298 287 288 300 308 310 312 316 318 317 315 318 324 322 322 321 317 312 307 308 307 310 309 307 306 301 296 299 300 301 299 300 301 299 299 298 298 296 297 297 301 303 306 304 303 304 302 304 306 308 310 312 311 310 311 312 312 312 312 313 313 314 314 315
308 308 309 308 309 309 309 309 309 309 310 308 308 306 306 298 299 298 303 303 298 299 301 302 303 304 303 303 305 312 317 317 311 313 318 322 320 313 314 315 312 312 307 299 304 306 310 299 297 297 299 302 305 305 304 304 301 302 302 300 299 298 299 301 302 304 304 303 303 304 305 304 305 307 309 311 312 311 311 311 311 312 312 312 313 313 314 315
308 308 308 308 308 308 308 308 309 309 309 310 306 302 292 293 290 287 296 298 302 304 302 303 304 302 302 305 308 310 305 308 313 312 316 323 319 312 306 307 304 298 302 305 304 307 306 297 297 301 303 304 305 306 306 304 302 301 299 298 297 299 297 300 300 303 305 301 300 304 303 304 305 307 309 311 310 309 310 310 311 312 313 314 314 314 315 316
308 308 308 308 309 309 308 308 308 308 308 309 305 299 300 301 304 306 302 292 299 303 302 303 304 302 307 306 309 311 311 305 305 309 314 317 314 305 305 305 301 296 302 303 303 300 296 294 299 304 306 306 306 305 306 304 301 300 298 298 296 297 301 299 300 301 303 301 298 302 300 300 303 305 308 308 309 310 312 312 311 311 312 313 314 315 315 316
307 308 308 309 308 308 309 308 309 308 307 305 302 301 301 306 307 306 305 300 296 303 301 301 300 302 303 308 309 308 302 300 300 306 310 313 308 307 306 301 299 299 301 301 295 294 290 296 302 306 306 304 304 305 304 303 302 300 298 296 294 299 296 293 299 301 302 301 298 300 299 300 303 305 305 307 308 309 311 312 312 313 312 312 313 315 315 316
306 306 308 308 308 308 309 309 309 308 305 304 303 302 307 307 307 306 299 292 290 297 300 302 303 303 301 301 308 307 302 303 303 303 314 311 303 307 306 302 299 299 296 299 297 295 294 300 305 305 304 303 301 302 302 300 297 301 300 298 297 297 297 297 297 298 301 302 302 299 297 297 300 300 302 306 308 308 309 310 310 312 313 314 315 316 316 315
305 305 306 308 308 308 308 309 304 304 306 305 303 307 308 305 304 305 297 290 290 291 303 301 304 303 305 312 309 302 303 303 304 310 313 311 306 304 301 306 301 296 297 299 298 296 296 302 304 302 302 302 301 299 299 300 296 298 302 301 300 301 299 298 298 296 295 295 299 297 290 291 299 300 301 303 304 305 307 307 308 309 310 312 312 313 315 316
304 305 305 307 308 308 308 301 301 304 303 299 303 308 307 304 301 300 297 285 280 289 295 288 305 296 311 302 306 304 304 296 307 309 313 313 313 306 304 300 301 294 297 298 297 297 297 302 302 301 300 299 300 298 300 301 296 295 297 304 302 301 300 298 296 295 290 288 296 299 289 286 298 298 301 302 303 304 307 307 307 308 309 310 311 312 313 314
303 304 305 306 307 308 301 297 304 302 297 300 307 307 306 304 304 299 290 281 278 290 286 297 297 297 306 303 304 304 285 290 307 309 309 311 307 311 300 297 300 302 302 301 296 291 299 299 299 300 299 298 297 295 300 301 297 293 303 304 303 301 298 298 297 296 294 299 299 297 296 289 290 297 302 303 302 303 304 305 306 307 309 309 310 311 312 313
303 304 304 306 307 307 302 303 300 298 299 304 306 305 305 303 303 300 287 273 271 295 287 293 297 308 302 304 305 296 297 305 294 301 310 310 309 303 300 297 297 297 300 297 284 298 298 296 297 296 297 296 294 298 301 302 297 297 302 303 300 301 300 300 297 294 295 294 289 293 296 290 288 296 302 302 299 300 301 303 305 307 308 309 310 310 312 313
303 304 304 305 306 307 307 303 301 299 305 306 306 305 304 304 302 290 280 271 284 288 304 292 308 300 299 302 299 299 298 300 293 302 307 308 308 303 296 299 300 300 302 299 291 296 297 300 299 298 297 293 298 301 302 301 296 301 304 303 302 302 301 299 296 295 294 289 285 291 295 287 287 294 296 300 299 298 301 303 305 307 308 308 309 310 311 312
302 303 304 305 305 305 305 305 302 305 306 306 306 305 305 302 291 280 275 269 287 280 293 294 294 290 298 293 293 297 295 296 300 301 304 302 302 304 298 306 301 299 296 300 298 298 300 301 304 300 296 298 299 301 303 301 301 305 303 299 299 299 299 300 298 296 291 283 286 293 295 292 284 292 295 296 297 300 302 304 306 308 308 309 309 310 311 311
301 302 303 305 299 301 302 298 302 307 306 305 305 304 300 290 282 277 271 278 287 283 292 290 287 296 292 290 288 295 295 297 295 299 296 301 297 299 301 297 302 295 293 294 294 297 299 300 300 302 303 302 301 299 302 303 303 302 298 295 295 294 294 292 290 293 284 281 289 294 294 295 284 288 296 300 303 304 303 303 304 306 307 308 309 310 310 311
302 302 303 302 301 303 297 297 303 306 304 305 304 297 291 279 282 273 274 290 277 282 285 286 290 290 291 293 291 291 290 292 295 296 294 294 292 290 293 288 293 285 285 287 287 296 293 295 298 299 301 302 299 296 297 300 301 298 296 294 286 284 286 280 285 280 281 281 289 294 295 291 290 293 298 301 303 304 305 305 305 306 307 309 309 310 311 312
302 302 302 302 302 302 303 305 306 304 304 303 299 294 283 278 271 279 278 278 276 285 283 291 288 290 290 290 287 292 295 288 295 295 297 296 293 293 296 295 294 291 282 289 288 288 289 296 296 297 299 302 301 292 292 290 295 295 292 290 285 280 279 277 281 284 285 289 293 292 295 288 293 296 300 300 302 305 305 306 308 307 307 308 310 311 310 312
302 302 299 301 301 302 305 306 305 304 300 300 295 287 282 274 272 283 277 278 278 285 289 287 289 290 290 285 288 292 286 291 293 292 295 291 292 289 292 295 294 288 288 291 285 286 281 283 290 295 290 301 299 297 296 294 294 294 297 293 288 286 281 277 280 278 280 284 289 294 289 284 287 291 302 302 304 305 306 306 308 308 309 310 311 311 312 312
302 301 301 301 302 305 305 306 305 304 300 296 289 284 276 275 276 275 277 278 281 285 286 286 287 287 285 288 289 291 291 286 291 290 291 289 286 288 288 290 295 294 288 285 288 287 285 285 294 299 299 300 297 301 301 298 296 297 297 297 290 286 293 283 286 285 284 284 285 287 287 293 291 300 302 304 305 305 306 306 306 306 307 309 309 309 309 310
300 299 300 299 301 303 306 305 304 304 299 293 285 279 277 277 276 278 280 286 284 284 285 287 285 284 282 285 289 288 292 288 289 290 288 290 291 289 292 293 293 295 289 284 290 283 287 284 295 298 300 298 298 301 300 300 285 293 294 287 291 299 294 288 288 290 288 285 282 290 289 292 297 298 300 302 302 302 305 305 305 306 307 307 307 308 308 309
296 298 296 300 301 304 305 304 304 302 298 291 283 277 280 280 283 284 288 285 285 290 286 280 281 281 281 281 284 286 287 289 287 288 283 290 286 290 291 292 298 296 296 293 288 291 284 284 292 294 292 298 301 301 302 300 299 294 288 292 298 294 293 289 281 285 284 280 282 289 285 288 289 285 300 298 299 300 301 303 305 306 307 306 307 308 309 309
295 295 297 297 302 305 305 305 303 299 294 287 280 281 277 280 285 285 287 287 288 288 285 282 280 284 278 280 280 285 287 284 284 286 284 288 282 294 291 291 297 296 297 298 290 290 291 282 287 293 293 297 299 299 297 300 302 295 292 301 291 282 283 287 285 277 278 278 280 285 288 289 290 290 295 294 297 299 300 303 304 305 306 306 307 308 309 310
296 295 292 298 306 306 302 304 301 295 289 282 281 280 281 278 285 285 287 288 289 287 284 284 282 282 284 281 283 285 287 281 286 284 282 285 282 292 291 293 292 296 298 297 291 292 292 281 285 294 291 294 291 293 284 290 298 292 296 295 301 293 288 284 285 285 284 278 280 280 286 283 293 293 296 296 298 299 300 301 302 303 305 306 307 308 309 310
293 291 289 300 304 304 304 302 295 291 286 280 282 281 282 277 285 288 288 288 287 286 284 283 284 283 284 284 285 283 285 284 285 284 284 286 285 293 289 295 291 294 296 298 293 296 288 290 279 289 294 294 284 290 286 290 288 291 291 288 292 291 295 293 291 286 283 280 281 280 281 286 294 298 298 298 299 300 300 300 302 303 305 306 307 308 310 310
295 291 290 301 301 302 302 296 289 285 284 283 284 280 280 280 286 288 288 289 290 289 286 285 285 283 284 283 283 285 283 282 284 282 284 284 285 283 291 293 293 291 295 295 293 293 287 287 280 285 286 285 287 295 294 294 294 292 290 288 290 287 285 281 279 291 287 284 280 281 278 287 294 299 300 300 301 301 303 302 303 304 305 306 307 310 310 311
291 285 288 301 302 301 295 286 286 288 285 282 282 283 280 290 285 285 287 288 289 289 289 283 284 283 285 285 286 285 284 283 283 284 283 283 286 286 290 292 292 295 292 288 289 294 292 289 285 282 284 286 291 295 296 297 296 294 293 289 292 291 290 285 278 282 287 287 289 286 282 285 297 299 299 300 301 301 302 303 302 303 305 306 308 309 310 311
289 286 297 300 302 299 292 285 287 286 284 284 286 285 286 287 284 284 286 287 286 288 289 288 284 283 285 284 284 286 286 283 284 283 286 286 287 289 293 290 289 289 291 284 290 291 289 286 282 283 288 290 293 293 289 286 290 290 292 293 292 288 289 287 286 288 284 285 284 283 280 285 297 299 300 300 300 301 300 301 302 302 303 304 306 307 308 309
288 288 291 299 301 298 289 281 281 283 282 282 285 284 285 286 284 284 284 286 285 287 285 286 285 286 283 286 284 283 287 279 285 285 285 288 286 293 293 291 292 288 288 286 286 291 284 284 283 279 280 282 284 287 287 289 288 285 287 290 291 292 292 290 289 288 282 283 284 282 276 284 295 299 301 299 299 299 300 300 300 301 303 304 305 306 307 308
289 291 291 292 298 296 285 286 284 284 283 282 283 281 283 284 286 286 285 285 287 286 285 284 286 288 286 287 281 284 286 284 281 286 287 287 288 290 291 292 292 290 292 293 294 296 285 285 283 276 273 272 272 273 276 281 284 288 288 289 290 289 288 286 281 284 280 283 286 282 281 289 295 297 297 298 298 298 299 301 298 300 301 302 303 304 305 306
287 282 287 287 288 290 289 290 289 286 283 282 281 283 284 282 285 285 285 283 287 286 286 287 287 288 286 285 282 276 283 287 282 279 284 284 288 290 289 291 292 291 292 293 294 294 285 286 284 281 279 277 280 283 285 284 284 281 282 286 287 289 289 287 285 282 279 284 283 286 287 288 291 294 295 297 298 297 298 300 300 301 302 303 302 303 304 305
289 283 284 282 286 286 285 288 286 286 283 285 280 282 281 282 283 284 287 281 286 285 286 286 286 283 283 284 282 282 282 282 286 283 282 284 287 287 287 290 291 291 291 292 294 291 285 282 283 283 282 282 283 283 285 285 282 283 282 282 284 284 284 283 280 279 286 282 277 285 286 284 287 291 292 294 295 296 297 298 299 300 300 301 303 303 300 302
284 285 286 286 282 282 283 284 287 285 286 286 283 284 282 282 281 279 285 285 284 286 283 281 284 286 285 284 285 280 280 277 280 281 286 286 284 286 286 289 289 292 291 290 295 289 283 280 283 283 282 284 285 285 286 285 283 283 283 283 283 285 285 282 282 284 284 279 277 284 285 284 287 290 293 294 295 296 297 298 299 300 301 302 302 303 303 304
287 285 285 287 283 285 286 287 288 286 284 286 284 283 281 281 280 283 283 283 284 283 285 279 281 284 285 287 284 280 282 276 276 281 282 283 284 284 283 284 288 292 291 289 291 289 285 281 283 284 282 283 284 285 286 284 284 284 283 284 285 285 284 284 284 285 284 282 284 284 284 284 287 290 292 293 295 295 296 298 298 298 298 299 301 301 302 302
280 280 280 284 284 284 285 286 287 285 283 285 282 282 282 281 281 283 282 283 280 283 285 281 283 285 286 286 285 281 283 283 282 279 284 283 281 285 284 284 284 289 290 287 288 289 286 279 285 284 280 280 283 285 285 284 284 282 284 285 285 285 284 285 285 285 285 284 284 284 283 283 289 292 293 294 295 296 296 296 296 297 298 299 299 300 301 302
283 285 285 280 280 285 285 285 285 284 283 284 282 284 283 283 282 285 283 286 284 282 283 283 285 284 286 286 285 284 286 286 286 285 286 286 280 287 283 284 288 284 287 286 287 284 286 281 285 282 278 277 282 282 283 284 283 282 282 283 283 283 281 283 282 285 284 282 284 284 282 283 289 292 294 295 294 294 294 294 296 297 298 298 299 299 299 301
285 288 287 283 280 285 283 285 286 284 281 284 284 284 283 284 286 284 281 286 287 288 287 287 286 285 283 283 283 285 289 289 288 289 289 289 289 288 289 287 289 285 285 286 287 284 284 282 280 280 276 276 281 283 281 281 280 277 278 282 284 284 285 286 286 287 286 286 283 280 281 288 290 292 291 292 293 293 294 294 295 296 298 299 298 299 299 300
Wind_Speed
12 12 12 13 13 13 14 14 14 14 14 14 13 13 13 13 13 12 12 11 11 10 10 9 8 8 8 8 8 9 7 6 6 9 12 12 5 9 4 3 2 5 7 5 5 5 8 6 7 4 4 5 1 3 2 1 1 3 5 6 6 5 7 6 7 7 4 2 5 5 6 6 7 5 3 2 4 3 2 6 3 2 5 3 3 2 2 8
12 12 12 12 13 13 13 14 13 14 13 13 14 14 13 13 13 12 12 11 11 10 10 9 8 8 8 7 6 7 7 7 11 13 20 3 12 8 12 9 7 4 7 3 3 7 7 6 4 4 3 4 2 1 1 3 2 5 3 5 7 6 1 1 3 5 3 2 1 2 4 7 3 4 5 6 5 6 6 6 5 7 7 5 3 3 6 10
12 12 12 12 12 12 13 14 13 13 13 13 13 14 13 13 13 12 12 11 11 10 10 9 8 7 7 5 4 5 5 7 9 19 17 13 11 12 12 9 6 3 3 2 2 3 5 3 2 3 2 4 1 2 2 3 4 2 4 7 7 3 1 1 2 6 4 2 2 2 3 6 3 2 5 6 4 4 9 7 6 9 10 10 6 5 8 10
12 12 12 12 12 13 13 13 13 13 13 13 14 14 13 13 13 12 12 12 11 10 10 9 8 7 4 3 3 5 4 5 13 8 8 18 18 17 15 11 9 6 3 2 1 2 1 3 2 4 3 7 3 2 5 3 5 4 5 7 3 2 5 5 6 4 2 2 3 1 2 5 5 4 5 4 6 9 9 8 8 9 10 9 9 8 8 10
11 12 11 11 12 12 13 13 13 13 13 13 13 13 13 13 13 12 12 13 11 11 10 9 8 7 4 1 3 1 4 4 3 2 4 7 19 21 19 16 11 7 4 1 2 0 2 3 4 1 3 5 3 3 7 2 2 2 7 3 1 2 6 2 3 1 2 1 2 2 5 3 5 3 7 6 9 6 4 4 8 10 7 7 9 10 9 11
12 12 12 11 12 11 11 12 13 13 13 14 13 13 13 13 12 12 12 12 12 11 10 9 8 7 3 4 4 4 6 8 2 3 8 9 13 20 20 19 14 9 6 4 2 1 4 4 6 6 5 6 7 8 4 3 2 8 7 5 3 2 5 4 1 1 4 3 5 5 1 2 6 4 6 9 12 2 5 4 4 3 2 1 7 10 11 12
12 12 12 11 11 12 11 12 12 13 12 13 13 13 13 12 12 11 12 12 12 11 10 9 8 6 5 5 2 6 9 5 3 1 7 7 5 14 15 15 14 11 8 6 6 5 6 5 8 7 6 6 4 7 3 5 3 7 7 4 4 3 7 2 2 1 3 3 3 2 1 5 5 9 2 8 11 10 2 2 2 3 2 3 7 10 12 14
11 12 12 12 11 11 11 11 12 12 12 12 13 13 12 12 12 11 11 11 10 11 10 9 8 5 9 4 3 6 10 11 4 3 5 7 3 7 10 12 13 12 12 12 9 9 5 8 9 3 7 8 4 10 5 4 6 9 10 5 1 2 4 3 2 1 2 4 2 1 4 6 7 2 3 8 12 10 8 3 2 1 1 4 6 9 10 11
11 10 11 11 11 11 11 11 11 12 12 13 13 12 11 12 12 11 10 10 10 10 10 8 8 6 7 4 7 9 13 11 0 6 4 7 6 9 11 8 12 13 12 11 11 9 8 7 7 8 4 10 4 8 5 7 8 11 9 3 2 3 2 1 2 4 4 3 3 5 10 7 1 3 9 13 8 6 1 3 5 3 4 6 8 9 10 11
10 11 10 10 11 12 12 12 11 12 12 13 12 12 12 12 13 11 10 10 11 12 11 9 6 8 8 4 6 12 1 1 9 5 2 5 5 10 8 9 11 11 11 12 10 10 11 5 7 3 4 4 2 5 4 10 2 4 7 5 6 3 2 2 5 3 0 4 3 9 10 9 3 4 8 9 10 5 5 6 4 5 8 8 7 8 9 10
10 10 10 10 10 11 11 12 12 12 13 13 13 12 12 12 13 11 9 9 11 13 10 9 6 9 7 6 10 14 3 2 4 2 4 5 6 7 8 9 11 11 10 9 12 14 10 5 4 3 2 4 5 5 6 3 2 3 3 2 6 5 4 4 3 4 2 6 7 8 11 5 3 5 11 6 4 4 8 9 6 6 7 7 8 8 8 9
11 10 10 10 10 10 11 12 12 12 12 13 13 13 12 13 12 11 8 8 9 12 11 8 10 5 6 8 12 9 1 2 1 1 2 6 6 7 8 10 13 13 13 10 9 9 8 7 6 7 4 5 7 3 7 3 4 2 4 7 7 5 8 9 11 9 7 7 4 2 8 13 10 11 11 14 3 3 6 8 8 8 8 7 6 7 7 9
11 11 10 9 10 10 10 12 12 12 12 13 12 13 12 12 11 9 9 9 9 11 9 5 6 6 5 11 12 10 6 2 2 4 2 4 1 1 5 8 12 12 13 10 8 2 3 4 6 9 1 4 5 4 4 2 1 1 4 8 6 9 12 12 6 4 8 7 7 5 11 14 18 15 12 14 11 5 6 8 8 8 8 7 7 7 7 7
10 10 10 9 10 10 10 11 12 12 11 11 12 12 12 10 9 8 10 12 5 3 3 9 6 6 7 8 1 2 8 2 1 5 3 1 4 2 2 4 5 7 7 6 6 5 5 3 4 1 2 6 4 3 5 3 2 9 4 1 10 9 11 10 10 9 9 5 8 8 14 13 13 11 13 12 7 10 12 14 12 10 8 7 7 7 8 9
10 10 10 10 10 10 10 10 11 11 11 11 11 12 10 9 8 7 8 8 11 3 6 8 6 5 8 7 4 2 5 1 5 8 4 6 6 4 5 5 7 6 3 4 5 4 6 6 7 3 4 2 3 5 3 4 3 5 5 11 10 11 7 8 7 13 14 4 8 10 14 16 14 8 6 6 6 9 13 15 15 12 9 8 7 8 9 10
10 10 9 8 9 9 9 9 10 11 10 10 10 10 11 9 8 7 5 7 10 7 4 6 4 7 3 9 3 4 5 7 9 9 3 6 7 5 7 7 6 6 8 4 2 3 3 7 4 5 4 1 8 9 8 6 7 8 12 9 10 9 10 5 10 9 15 8 7 17 11 7 10 13 9 4 6 9 12 14 14 15 12 9 8 7 8 8
12 10 9 9 9 9 8 8 8 10 10 9 9 9 10 9 8 6 5 2 6 4 6 3 5 6 6 0 2 4 4 8 3 8 4 4 5 8 9 9 6 7 7 6 5 6 4 7 3 1 2 6 9 10 9 11 13 13 11 12 7 9 8 9 6 5 8 13 10 14 15 19 10 5 3 2 5 8 11 13 14 13 10 10 9 9 10 10
13 12 11 10 10 10 9 8 8 8 10 8 8 7 7 8 5 3 3 4 1 2 2 3 3 5 11 7 6 6 3 3 5 7 5 3 6 11 10 5 5 10 10 6 3 9 5 7 7 10 6 9 8 10 14 16 17 15 11 13 11 6 10 11 6 5 8 7 14 13 18 20 19 16 13 6 6 8 13 12 12 12 11 11 11 12 12 11
16 13 11 11 10 9 11 10 8 7 9 6 1 0 2 8 4 1 4 6 5 4 7 7 9 10 4 9 10 4 4 3 3 7 8 9 4 5 2 6 9 11 8 8 4 9 4 3 6 10 14 14 15 18 19 14 7 16 18 15 10 11 11 13 6 3 8 12 12 17 15 15 18 17 16 12 8 9 11 11 8 9 10 11 12 12 11 11
18 14 14 12 10 10 12 11 10 7 4 4 6 5 2 4 3 4 3 6 10 6 4 11 12 3 5 4 8 4 4 4 9 1 6 5 9 9 5 6 4 6 7 10 8 10 6 11 12 15 16 18 20 23 20 16 1 11 13 10 12 11 13 3 7 5 1 5 14 16 17 17 18 16 16 15 14 14 13 14 12 10 10 11 11 13 13 14
20 17 13 13 10 7 8 8 10 8 7 6 9 6 4 9 8 8 8 6 11 6 5 1 8 8 1 2 3 8 7 4 2 9 10 4 8 13 7 6 7 9 10 11 7 3 7 11 15 17 19 18 20 20 20 18 6 11 8 11 13 14 14 6 7 6 3 7 10 9 12 16 18 18 18 14 13 17 15 15 17 17 16 13 13 14 13 13
20 19 18 13 11 8 7 5 3 3 6 5 8 7 2 7 3 4 2 6 7 9 4 1 4 4 1 2 2 3 3 5 5 4 0 5 12 13 8 12 13 13 10 9 5 6 9 16 16 18 16 14 15 18 19 20 19 6 9 11 14 15 13 2 3 3 4 5 13 9 13 17 17 17 19 17 17 14 14 15 17 18 19 17 15 15 16 12
21 21 19 17 12 9 8 7 5 3 5 6 8 9 4 2 4 3 4 3 5 7 9 8 7 9 6 0 1 1 7 8 9 11 9 7 9 11 9 10 13 12 10 12 13 10 12 15 19 12 13 16 17 16 17 17 17 15 12 13 14 9 10 10 8 7 6 9 7 4 12 15 17 19 22 21 18 15 14 17 19 18 18 18 18 16 15 18
20 21 20 19 16 9 8 6 1 5 6 10 9 9 2 4 4 6 4 4 3 6 9 10 9 5 8 8 4 5 8 5 6 11 9 10 9 6 7 13 14 11 11 13 15 15 13 2 10 15 14 16 17 16 16 13 14 17 18 16 16 15 10 13 4 7 6 11 7 8 13 15 15 17 16 17 18 17 16 17 20 19 17 17 16 16 16 18
20 20 21 20 18 13 9 5 1 2 2 6 9 5 4 7 6 4 6 3 2 1 3 3 4 5 6 4 2 7 3 1 4 1 11 12 11 7 9 7 8 12 12 14 14 15 17 8 8 16 18 17 15 13 15 14 16 13 17 19 18 16 17 11 5 5 5 9 11 7 10 16 13 20 20 17 17 20 17 19 20 20 19 16 18 19 18 18
20 20 20 20 20 13 6 3 0 2 3 5 2 3 5 7 7 5 3 2 3 4 5 10 8 9 9 6 7 5 2 6 6 2 8 8 5 5 7 8 7 14 16 15 14 8 12 12 9 10 13 16 17 15 13 12 12 12 8 12 10 8 9 8 9 6 9 13 5 13 12 14 3 10 15 15 18 24 18 17 20 19 18 18 17 17 17 17
19 20 19 20 19 13 3 1 3 3 3 4 2 2 3 8 6 7 2 3 7 7 8 3 10 3 3 10 11 10 10 8 5 3 8 2 10 2 9 9 5 4 7 5 3 9 6 12 11 11 12 13 15 17 17 16 12 11 5 10 9 12 13 10 9 10 6 0 0 8 10 15 17 14 14 14 18 21 21 18 17 16 17 18 18 17 18 18
19 20 20 20 20 15 3 1 3 4 3 3 4 6 3 7 8 2 1 4 4 10 6 7 5 4 2 11 14 13 2 9 10 9 6 7 4 4 3 12 13 13 10 8 16 4 15 12 14 15 15 13 14 14 13 16 12 5 7 8 8 10 11 10 8 7 8 9 8 5 7 11 14 13 13 12 17 20 22 20 17 17 15 16 17 18 19 20
19 20 19 19 19 15 1 2 2 3 1 4 6 4 2 2 2 3 3 2 3 3 5 7 3 5 6 10 15 13 3 3 5 5 4 4 1 2 9 13 13 12 9 15 13 5 2 12 17 16 15 16 12 10 9 13 14 13 6 5 6 3 8 12 10 10 11 11 12 13 12 13 20 13 10 14 19 21 19 18 19 19 16 14 15 17 18 18
19 18 19 19 13 5 1 1 5 1 2 5 6 5 4 4 2 2 3 5 2 3 3 2 6 9 11 11 11 14 8 1 2 4 7 6 7 3 3 5 8 9 10 11 15 12 1 4 2 9 13 14 13 12 9 11 13 5 8 8 7 2 6 5 8 7 7 17 15 18 19 17 18 15 11 14 14 15 12 13 14 13 15 15 15 16 16 16
20 19 17 16 8 5 6 4 5 4 4 5 6 5 4 1 2 5 4 2 4 2 1 2 5 7 14 16 11 12 13 7 4 8 8 4 3 3 3 2 1 4 3 7 11 16 11 3 5 2 2 7 9 10 10 10 7 6 5 9 8 7 1 4 5 6 11 15 12 19 19 21 19 16 9 15 12 12 15 18 16 15 15 15 14 14 17 18
20 21 18 11 8 6 6 2 1 5 6 6 7 5 3 4 0 3 2 7 3 0 6 4 1 2 13 14 10 14 14 5 5 8 9 10 7 6 9 8 7 6 7 9 11 10 14 12 4 1 4 5 11 10 10 9 8 9 7 8 11 6 4 10 6 12 15 15 10 13 16 14 22 24 11 7 11 14 14 13 15 17 17 15 15 17 14 13
20 21 21 10 7 6 8 2 4 4 6 4 4 2 2 1 3 3 1 3 1 1 2 2 5 5 8 14 5 11 10 11 7 5 8 10 11 10 11 13 3 4 8 12 13 9 8 11 12 6 3 6 11 13 8 8 10 14 14 13 13 13 12 12 12 9 10 13 14 5 9 18 14 18 23 25 24 13 14 13 14 16 17 17 13 12 14 13
22 20 12 7 6 7 4 4 5 8 8 4 3 2 1 2 2 6 1 1 1 2 2 3 5 5 12 5 8 9 7 4 10 8 8 7 10 9 9 11 7 1 0 5 13 12 11 11 13 13 9 12 15 15 14 7 13 16 12 13 12 8 8 12 10 16 14 11 7 9 8 6 7 13 4 12 17 22 23 19 14 14 17 16 14 12 15 15
23 16 8 7 5 6 6 5 8 10 6 4 3 3 3 2 2 1 0 1 2 2 3 3 6 4 5 7 2 11 3 6 6 7 9 8 10 8 9 10 12 6 0 7 5 5 17 12 4 22 9 16 15 14 13 10 8 11 13 10 11 15 8 16 6 10 9 12 11 7 9 3 14 12 7 1 1 12 19 20 20 19 17 14 10 9 12 12
13 7 4 4 3 5 5 5 8 7 6 5 3 3 3 1 1 1 1 3 0 1 5 5 3 7 2 7 4 11 1 3 6 8 7 11 11 11 10 7 11 14 8 8 3 9 6 13 3 12 15 15 17 15 11 9 10 9 10 12 11 7 18 11 10 14 6 9 14 5 6 14 14 19 21 16 8 8 11 15 17 18 17 15 14 12 11 11
8 7 3 2 2 6 5 6 6 6 3 6 3 2 1 0 1 3 2 3 1 7 6 3 1 1 3 2 3 9 1 3 5 6 5 6 9 12 8 6 7 14 16 10 7 2 3 3 5 3 14 12 9 14 11 16 7 2 10 11 4 5 5 6 12 8 14 16 7 11 15 12 12 13 9 22 17 14 17 14 14 16 15 16 15 13 11 12
7 5 3 3 3 5 6 7 8 4 3 3 4 1 1 0 2 3 2 2 3 1 1 1 0 1 1 0 2 7 3 7 7 5 6 10 4 9 14 7 8 11 15 14 10 2 5 9 9 9 6 2 3 5 7 11 13 10 7 7 12 5 10 6 5 14 15 14 9 13 19 19 17 16 3 5 13 14 15 14 14 16 15 16 14 14 12 12
4 3 2 4 3 7 4 5 5 6 4 4 3 4 2 3 4 2 3 5 2 1 1 1 1 1 1 2 2 2 5 5 6 5 6 6 7 6 12 9 8 11 14 14 11 4 2 6 5 4 12 6 3 3 11 12 13 3 5 8 3 2 11 10 11 4 7 15 11 17 15 17 14 16 17 20 14 9 10 13 16 17 17 11 11 11 11 11
3 1 4 5 3 5 7 7 5 3 2 5 5 2 1 3 2 3 3 4 3 1 1 2 1 2 1 1 2 3 4 4 4 4 4 1 7 3 2 3 3 5 12 16 11 8 8 7 12 1 2 8 4 6 6 10 12 11 9 8 5 6 3 5 5 10 9 11 14 12 13 9 11 11 14 15 16 15 7 10 11 13 15 16 16 14 12 13
3 1 2 2 5 7 6 6 4 4 3 2 2 2 2 2 4 2 3 2 0 2 2 1 1 3 3 4 2 1 2 3 2 4 3 1 4 4 5 5 5 3 3 8 12 8 6 8 12 9 6 8 7 12 14 14 11 8 9 10 14 11 11 15 14 9 9 9 11 11 18 8 3 0 8 8 10 12 13 13 11 13 16 16 14 14 12 10
3 2 2 2 6 10 7 5 1 2 1 4 4 3 1 1 1 3 3 1 2 3 2 4 3 1 1 3 2 3 2 2 4 3 2 4 3 3 1 2 5 3 4 3 6 10 5 4 11 13 11 9 12 9 2 8 10 10 10 10 10 13 9 12 15 12 7 14 11 15 15 14 5 3 1 4 6 7 4 6 11 7 10 11 10 10 10 9
4 2 2 5 7 9 6 3 3 4 2 0 3 3 1 1 0 2 3 3 2 2 2 1 0 0 3 0 2 2 4 2 6 5 4 8 7 10 4 8 8 9 8 1 2 4 7 5 6 12 11 10 5 5 1 6 3 4 7 7 10 13 14 13 10 8 11 9 13 13 17 7 8 11 9 10 13 5 1 4 8 7 7 10 11 12 13 13
2 2 3 3 3 4 4 4 5 8 3 1 1 2 1 1 1 2 2 3 1 2 1 1 1 4 2 2 1 2 5 2 4 4 2 4 3 2 5 8 9 4 4 4 5 4 4 2 6 9 8 6 8 5 3 1 2 3 5 8 11 12 12 14 11 10 12 10 13 11 16 6 5 2 2 1 3 4 5 4 4 7 5 6 8 8 8 10
1 1 2 2 2 1 3 1 0 6 4 5 4 4 2 1 0 2 2 3 1 0 0 1 1 1 2 2 1 2 1 4 2 4 4 1 4 2 4 8 8 6 4 2 1 4 3 1 2 7 13 12 10 8 9 9 10 6 2 6 10 12 14 11 13 11 13 10 15 14 10 8 14 16 16 8 5 9 8 3 4 3 6 7 6 7 9 9
1 1 2 1 3 2 2 1 1 1 5 5 3 3 2 4 2 1 3 3 1 1 2 1 1 2 1 1 1 3 2 2 2 1 1 2 3 1 2 3 9 8 7 2 2 5 1 2 6 5 8 9 7 5 3 5 5 1 5 6 5 6 7 9 7 7 9 7 15 10 9 14 17 18 18 13 11 13 13 12 10 6 5 6 8 7 7 8
2 2 2 1 1 1 1 2 2 0 4 7 5 4 7 10 4 3 5 2 2 4 1 4 3 3 2 2 2 2 2 2 1 2 4 5 1 0 3 1 1 4 3 1 2 2 1 5 6 8 12 11 12 12 10 7 9 9 11 12 11 11 13 12 9 10 9 8 16 4 7 10 10 16 21 19 15 16 17 14 13 13 15 14 11 9 8 9
2 2 1 2 2 2 3 3 4 2 1 9 4 4 7 8 8 6 2 3 0 2 4 0 1 9 7 7 6 4 2 2 2 6 8 6 4 2 4 1 3 5 8 3 3 4 2 7 6 7 12 11 14 14 13 10 9 8 12 12 14 14 13 12 12 11 13 11 8 11 15 12 12 13 20 21 16 14 15 16 17 17 16 11 13 15 18 17
3 1 1 3 2 1 2 2 3 5 5 8 3 4 5 7 8 10 3 2 2 2 7 5 5 9 10 7 7 7 5 2 6 6 4 1 3 1 3 2 4 3 8 5 5 3 3 9 8 9 11 12 13 13 13 14 12 12 14 15 17 17 19 18 17 16 17 15 13 14 19 24 17 16 20 25 22 17 17 17 17 18 18 17 16 17 18 19
4 3 2 4 2 4 3 1 3 4 6 8 6 7 6 9 9 6 1 5 3 3 2 8 7 6 9 9 10 11 12 12 11 5 3 6 1 6 6 7 2 1 4 6 3 5 7 5 10 8 10 13 15 15 14 15 15 19 19 19 19 18 18 18 17 17 16 18 16 18 21 22 14 15 20 24 24 20 17 19 20 20 18 18 17 18 19 20
2 2 2 3 3 2 1 1 2 5 5 5 6 5 5 9 12 8 6 6 12 6 7 11 10 8 6 10 12 16 14 10 11 15 8 7 11 6 6 1 9 3 5 3 4 2 7 7 6 6 9 11 10 13 16 16 17 18 18 17 16 18 19 18 16 15 16 17 16 19 19 16 12 16 18 21 24 25 25 22 19 17 17 19 19 21 22 22
1 1 2 2 2 3 5 3 2 1 4 2 3 2 2 6 6 4 6 6 11 13 10 8 5 6 6 9 15 15 12 12 13 12 9 9 12 11 7 9 6 8 2 7 4 3 7 4 6 6 11 11 12 14 13 14 12 15 17 16 18 20 19 18 19 17 19 17 16 15 16 14 17 15 19 19 21 23 25 22 18 17 18 19 21 21 21 21
Wind_Direction
287 280 275 267 266 265 264 262 262 261 260 259 261 260 259 260 258 257 259 258 258 259 259 261 273 279 282 277 283 272 273 251 244 239 237 238 179 207 198 188 317 335 334 321 267 257 261 259 279 333 262 255 55 227 72 190 38 208 209 225 216 228 205 167 205 201 31 193 139 173 191 213 224 159 158 176 200 266 117 220 172 261 239 263 76 39 94 140
291 287 279 271 264 265 263 262 261 261 260 259 262 261 258 256 258 256 256 257 257 256 257 258 268 279 284 289 277 279 271 248 247 250 240 175 193 196 229 245 255 308 306 262 235 229 242 238 243 294 269 228 78 254 263 158 246 218 191 226 234 199 180 167 211 184 190 183 54 119 184 216 222 178 155 217 195 201 215 219 214 228 225 199 211 144 154 156
295 293 287 280 273 266 263 261 260 260 259 257 256 258 258 257 256 257 255 256 255 255 255 255 262 279 289 296 316 295 270 253 257 250 253 215 196 202 214 219 199 231 309 335 2 278 249 228 198 234 225 249 153 213 251 146 224 205 236 219 233 194 236 244 212 192 243 18 261 230 169 207 167 194 117 224 224 181 231 218 197 232 228 206 166 153 157 171
298 293 289 286 282 273 267 261 258 258 259 256 254 255 256 256 255 256 254 254 253 253 255 252 253 265 282 308 47 320 234 266 259 254 223 201 196 198 202 199 189 175 201 61 350 323 316 133 170 231 188 236 132 247 226 162 232 130 229 234 233 153 230 199 206 223 196 280 330 324 117 210 197 189 189 196 231 232 240 241 238 226 228 201 158 161 163 177
298 296 290 284 279 279 271 267 263 259 257 256 254 255 258 255 253 253 254 251 251 251 249 246 243 253 265 156 136 17 216 294 298 107 14 261 195 195 188 190 175 186 200 71 216 107 289 252 194 188 219 209 188 199 233 149 326 155 234 289 36 102 237 82 189 103 213 351 261 156 195 190 97 155 209 205 221 225 224 242 227 250 268 158 165 170 170 182
298 294 291 286 279 273 274 272 268 263 261 259 256 253 256 258 255 255 253 250 246 247 247 242 237 250 236 164 129 208 193 222 57 37 307 296 216 196 190 182 173 174 165 196 225 108 229 212 217 193 201 218 196 214 143 193 158 234 209 244 239 222 255 46 138 140 190 191 208 201 191 87 196 202 205 218 228 229 60 35 351 297 318 138 162 159 178 185
301 295 289 286 281 278 275 268 264 258 260 261 254 248 253 254 260 257 250 249 245 245 247 238 234 236 166 150 173 219 214 280 126 184 306 331 217 202 196 185 162 174 182 181 192 201 208 219 219 208 196 208 208 228 136 190 214 249 244 160 214 178 235 39 28 98 206 238 217 21 36 226 179 230 123 218 235 250 72 61 42 35 47 142 166 183 188 190
306 298 291 285 282 277 270 268 264 259 258 260 258 250 248 252 253 255 255 250 252 248 242 232 235 203 139 145 162 227 218 231 169 196 317 10 55 157 169 184 171 177 192 199 180 200 178 213 209 147 224 210 148 203 147 189 191 220 239 212 167 188 241 275 304 259 228 249 19 267 244 232 214 256 127 234 236 237 242 154 193 91 135 177 203 198 205 202
308 297 292 285 280 275 270 265 265 262 257 253 250 252 246 244 248 253 255 246 246 251 242 223 229 195 169 184 227 241 233 225 257 174 28 31 54 116 138 166 179 183 192 199 193 187 183 208 224 196 237 214 169 207 157 206 225 215 231 144 165 222 151 144 254 251 246 259 222 254 252 253 187 27 254 251 230 215 147 237 223 203 199 201 211 210 207 210
315 309 301 293 284 278 271 265 260 258 258 255 253 252 251 245 244 244 252 249 249 241 236 231 208 189 172 176 230 238 268 275 230 152 265 62 93 116 146 145 184 197 195 199 189 178 196 180 212 161 340 264 164 225 152 206 269 179 213 224 237 228 234 170 245 220 181 256 195 238 253 252 131 206 248 225 242 194 200 219 185 208 224 212 209 213 217 220
324 315 306 295 284 276 272 266 261 256 255 256 254 252 249 246 244 242 253 254 240 240 232 217 180 175 206 204 224 233 108 132 24 12 245 146 135 138 147 167 177 200 211 197 195 191 189 177 123 95 273 236 179 195 209 209 64 148 125 174 236 239 231 208 217 208 191 242 203 238 261 275 170 206 239 235 148 187 218 220 200 213 227 219 212 211 214 224
330 323 315 307 296 282 274 268 261 255 253 252 251 250 244 245 248 244 243 255 261 256 232 221 185 184 216 231 227 222 88 52 88 31 185 183 186 186 172 177 184 193 191 193 204 195 183 158 166 186 212 141 214 48 230 181 238 146 201 243 220 226 247 211 227 218 188 234 157 211 277 258 213 223 215 243 180 179 223 233 215 220 228 225 212 213 213 218
331 326 318 315 304 292 280 272 261 255 253 250 247 248 246 237 242 248 245 248 237 240 231 232 190 198 204 235 242 236 263 66 355 41 31 219 134 80 194 187 190 195 190 182 195 150 74 127 180 210 103 234 161 228 61 194 159 160 214 245 247 240 245 218 180 154 193 222 157 155 254 237 239 222 206 228 235 222 247 242 225 224 222 223 216 219 225 216
331 327 326 319 314 299 287 276 266 257 254 254 253 248 243 240 239 242 248 245 228 217 259 203 196 203 211 243 136 147 240 57 356 291 28 206 157 64 153 176 196 195 195 177 146 143 132 150 163 255 29 228 209 92 179 93 165 222 196 216 239 238 241 196 196 161 215 160 173 193 250 252 248 236 197 213 214 219 237 241 236 227 224 219 218 225 232 224
331 331 328 333 320 308 293 282 272 262 257 252 247 249 249 244 241 245 249 255 245 197 158 140 219 181 229 255 263 143 112 193 241 237 152 191 146 137 151 155 173 178 157 142 132 142 131 117 114 192 208 91 102 188 185 199 174 205 195 227 224 228 233 173 180 178 219 151 193 187 248 252 250 241 140 201 203 220 239 244 243 237 228 224 223 229 237 240
338 330 336 330 319 312 302 290 276 267 256 251 247 244 252 244 236 242 236 231 251 183 103 170 198 216 257 240 188 67 186 211 221 215 172 204 178 163 169 159 135 118 132 53 96 143 157 148 172 170 161 176 197 208 219 220 220 214 225 234 211 202 228 237 192 208 220 211 190 200 241 257 244 243 244 147 212 218 237 244 247 248 241 234 233 233 241 247
346 336 331 327 318 312 305 295 278 266 259 250 249 239 241 245 233 223 237 334 237 156 179 190 163 187 225 30 61 204 188 197 125 185 166 209 197 144 150 137 130 111 91 97 128 149 179 178 101 91 177 220 196 203 217 224 229 222 213 237 233 205 206 231 83 227 214 224 216 209 235 247 252 134 139 188 213 232 238 240 243 247 248 245 245 241 240 244
350 341 330 324 325 316 306 297 286 262 257 246 238 232 233 246 264 235 147 125 73 126 121 1 129 156 257 252 213 192 112 141 180 174 162 147 165 152 149 154 141 142 135 121 116 183 171 184 167 209 157 194 196 194 207 218 213 219 207 225 231 230 226 243 221 159 188 209 237 215 225 243 248 245 240 170 182 224 244 245 242 244 244 243 244 246 242 242
358 345 336 327 324 325 312 302 293 265 245 245 211 53 97 80 89 46 123 137 154 129 188 183 165 199 202 222 176 68 167 126 107 166 162 154 176 130 136 130 149 151 168 174 182 190 175 161 182 200 203 194 196 198 208 224 222 222 222 219 223 226 216 229 212 80 201 211 219 227 232 236 247 246 243 231 186 222 241 252 249 245 247 248 248 248 247 244
0 351 339 331 324 330 335 321 312 301 227 161 123 117 153 160 145 191 183 202 207 212 356 178 195 160 54 28 157 107 73 172 163 33 139 148 144 143 169 145 165 185 174 200 157 206 150 197 194 202 207 205 204 206 214 218 126 217 222 227 231 230 241 138 208 137 174 257 238 235 239 244 250 248 247 239 236 231 238 249 249 242 240 241 245 246 245 244
358 357 349 335 333 330 324 338 327 293 207 167 160 168 196 184 165 202 176 223 222 229 20 104 207 224 16 41 356 163 156 185 251 180 172 157 163 158 185 161 170 204 206 196 159 120 199 210 213 212 216 209 209 212 218 225 231 243 238 229 237 235 246 224 199 155 188 233 253 237 253 250 252 258 256 250 239 236 234 241 248 250 249 245 243 252 249 248
355 355 356 343 334 336 337 298 298 308 204 178 181 198 236 204 36 29 114 208 218 236 264 276 336 256 176 346 358 350 315 165 183 150 69 199 161 191 173 190 188 207 191 188 130 184 204 214 217 215 215 220 221 218 221 226 229 205 227 240 245 242 244 133 214 127 164 220 253 242 249 254 252 253 257 249 244 242 237 238 247 250 249 250 247 246 255 253
350 352 354 352 344 338 329 305 308 202 164 188 197 213 229 47 83 106 28 260 213 179 215 223 214 220 208 79 104 297 195 187 183 191 169 187 157 208 162 191 199 204 196 183 198 195 213 228 227 219 217 219 218 219 221 224 232 230 222 225 232 234 215 248 211 179 193 214 264 239 255 259 257 253 256 256 250 245 229 231 241 243 249 248 249 250 249 252
347 347 349 353 348 330 319 318 307 175 201 201 210 204 30 58 76 110 63 227 217 179 201 211 225 215 205 194 179 162 208 197 204 189 163 176 174 165 202 189 202 203 204 194 213 213 215 230 220 214 213 213 216 215 218 220 227 228 231 231 237 228 211 231 236 182 210 236 273 284 273 265 245 247 249 254 253 246 230 226 237 242 241 244 248 252 250 254
345 343 344 348 350 336 325 318 210 225 207 222 234 223 57 62 64 55 139 281 321 251 123 252 199 236 191 68 186 204 129 293 274 190 177 187 160 156 212 187 203 210 208 200 214 226 230 208 151 199 218 218 218 216 213 208 225 229 229 229 233 235 241 221 182 174 236 249 211 202 277 263 238 232 237 247 255 249 229 221 228 232 235 231 237 241 247 248
342 340 341 344 347 342 328 254 273 358 227 216 239 189 100 82 70 35 198 215 222 167 136 214 135 222 125 199 145 160 50 241 187 183 175 202 185 213 166 210 191 207 205 203 212 229 234 217 209 204 212 217 222 226 215 213 231 228 225 196 221 232 233 216 208 183 243 246 192 175 240 273 209 230 227 231 240 251 249 225 223 226 230 233 232 236 239 244
337 338 338 340 342 344 261 266 75 149 249 243 141 92 125 105 83 75 249 183 253 150 166 138 191 289 253 169 148 142 206 214 83 140 186 246 195 352 216 183 174 257 200 173 200 223 184 214 208 215 221 210 219 226 218 210 222 233 120 171 183 216 224 218 200 205 235 208 87 203 204 260 272 248 240 234 232 242 250 246 238 225 222 228 235 237 239 241
333 336 336 335 337 337 246 21 159 188 242 37 86 68 54 116 99 67 274 160 240 127 162 179 217 133 157 154 149 185 348 117 159 199 214 163 160 208 235 198 191 195 177 160 219 147 197 198 207 208 218 220 220 225 225 213 221 229 106 126 207 205 221 230 225 220 232 256 241 191 233 267 256 249 249 232 238 243 253 253 247 245 227 222 232 237 238 238
329 331 333 332 333 336 216 229 237 235 59 103 101 82 90 100 141 136 195 190 230 65 285 158 133 121 120 170 176 198 83 159 200 113 113 96 264 27 196 221 209 202 178 191 219 202 28 205 202 206 211 226 221 219 207 188 225 236 143 188 255 274 246 242 242 235 234 233 236 229 192 245 268 248 233 221 222 244 250 253 249 241 238 217 227 236 241 244
326 326 332 330 335 326 262 258 244 33 110 131 125 128 110 125 109 184 182 240 89 145 81 187 194 171 167 162 183 196 181 89 50 103 170 179 159 183 330 320 219 211 198 209 231 236 161 21 7 200 212 220 217 214 195 200 221 82 157 228 237 177 242 235 243 241 256 242 233 225 210 214 263 255 210 217 217 221 237 246 247 246 238 226 222 231 234 236
324 320 323 329 315 327 300 259 232 148 140 135 127 118 116 24 180 187 196 201 59 224 24 35 177 217 168 170 176 191 204 167 150 150 173 174 158 187 199 164 37 218 217 205 225 237 231 218 186 230 337 226 216 217 209 209 207 173 207 225 244 238 95 253 232 220 241 252 228 222 222 221 242 263 226 237 241 218 208 240 252 249 237 222 217 225 235 238
321 317 314 320 304 285 255 257 125 157 140 154 144 124 173 159 32 203 199 343 61 139 141 167 198 118 184 181 186 175 187 149 178 178 170 189 193 179 194 203 155 187 205 189 219 216 234 219 196 241 359 231 190 219 210 196 147 200 205 225 219 224 193 238 200 226 221 240 233 227 218 235 233 250 243 253 229 230 222 225 239 247 249 236 214 221 230 234
321 317 314 307 293 260 243 273 145 137 137 169 134 144 158 212 195 218 211 345 148 53 208 207 173 174 170 186 167 182 189 202 149 203 178 192 205 213 205 212 176 214 223 193 223 213 241 229 198 226 253 205 204 201 184 183 186 203 203 201 214 223 224 238 225 238 254 246 246 235 171 244 261 266 250 245 244 251 258 240 230 244 250 251 234 211 227 231
318 319 312 297 277 255 244 148 158 148 153 147 156 175 348 112 234 22 99 37 47 352 29 119 151 152 178 156 173 153 186 200 180 188 197 183 195 215 208 220 189 243 310 196 207 210 234 228 213 185 223 158 210 211 199 188 178 209 206 203 211 210 215 228 222 231 231 252 240 196 179 237 212 233 285 243 236 226 234 237 228 230 247 248 243 214 221 230
319 309 298 291 260 232 215 163 160 173 154 162 170 207 198 199 97 188 52 218 266 271 73 273 134 159 177 166 145 170 170 181 206 176 196 192 210 214 213 206 206 182 235 223 217 222 225 246 185 188 192 173 198 209 218 187 187 200 204 214 223 220 220 240 219 236 243 251 238 183 216 179 234 261 245 154 335 226 225 229 232 232 234 243 239 228 230 234
319 307 287 267 236 179 182 160 165 180 179 172 182 203 217 28 14 156 82 159 117 100 135 101 31 183 210 164 174 179 176 257 167 187 204 205 214 216 212 208 202 186 197 205 152 218 186 234 170 185 199 193 199 198 204 155 221 180 187 213 218 216 223 247 267 266 319 280 253 233 224 236 271 264 257 252 216 206 220 225 229 233 234 236 242 231 222 235
323 320 297 148 209 161 173 153 161 170 208 191 193 212 352 276 277 188 140 162 320 140 139 133 188 245 177 165 152 188 151 133 189 198 200 177 237 221 222 215 180 191 207 199 248 207 266 245 65 161 204 217 215 218 182 194 212 86 222 208 94 55 35 233 246 237 237 245 242 210 229 237 228 270 207 234 232 211 216 206 219 231 229 237 241 239 227 226
318 308 275 273 156 156 161 150 140 157 185 185 201 82 35 36 37 305 319 117 153 238 80 83 52 279 350 97 14 171 203 190 177 179 216 180 261 193 211 215 183 205 200 206 237 167 177 265 241 190 232 139 41 183 236 224 220 222 234 185 210 186 223 193 248 237 239 241 258 234 242 244 236 242 264 179 232 235 212 208 206 223 224 230 241 244 237 239
278 272 54 20 161 152 134 133 136 148 142 182 214 213 326 263 294 305 354 328 325 340 234 37 102 33 149 171 190 194 202 190 194 169 194 185 218 169 204 197 220 201 201 195 217 205 154 249 290 170 200 153 97 193 213 206 221 87 344 257 229 250 239 219 212 286 252 254 252 253 232 245 227 244 243 253 241 249 190 203 215 228 237 235 235 242 238 233
312 282 61 11 131 112 138 143 118 142 139 208 180 191 33 304 311 323 23 339 11 321 236 86 308 119 113 27 156 184 195 204 214 197 222 290 228 101 126 231 221 184 209 193 210 191 239 163 260 176 151 133 220 178 226 219 212 211 213 231 224 227 331 298 257 226 230 246 242 258 247 234 235 237 242 248 250 251 178 209 204 221 232 237 245 238 234 241
313 340 68 45 121 125 119 106 131 174 167 54 30 127 7 308 328 11 21 5 299 31 2 336 154 179 164 136 212 198 154 194 199 178 182 232 201 231 202 191 213 188 145 207 218 212 228 203 233 237 209 204 212 190 195 212 218 226 216 215 221 223 220 231 244 219 228 230 242 250 248 255 264 84 243 251 256 251 244 235 227 215 226 233 239 247 240 244
320 58 44 83 159 148 133 130 141 95 127 158 181 147 186 179 304 352 348 74 29 22 64 101 23 52 119 178 52 147 156 167 190 188 199 233 207 259 357 125 107 73 137 181 221 218 246 246 242 234 238 231 227 221 226 234 223 217 200 225 225 239 234 233 241 231 225 232 249 250 270 247 232 235 195 282 283 280 298 256 260 247 239 249 265 277 283 276
14 50 11 167 184 167 150 162 128 164 176 42 53 85 17 37 359 340 321 357 313 58 31 45 352 165 241 242 203 169 190 187 186 195 192 205 227 212 167 165 129 134 138 221 225 257 92 229 224 253 269 262 268 73 34 37 59 278 233 233 223 223 221 241 254 275 268 246 233 247 248 256 231 251 264 263 271 306 19 238 245 251 236 245 252 262 265 274
349 355 22 53 11 345 195 178 173 189 112 322 298 106 349 135 37 351 353 344 311 21 2 61 88 238 331 14 147 217 192 239 209 213 245 220 257 261 174 173 169 158 191 204 196 200 233 200 227 255 252 255 252 225 191 95 130 222 233 218 221 237 234 243 253 256 255 238 258 262 253 254 241 268 249 22 272 278 260 230 237 261 266 258 262 272 282 282
284 205 49 27 354 338 223 38 175 189 148 153 161 146 145 105 97 242 303 308 66 337 185 302 334 107 202 71 331 342 257 264 352 210 290 296 246 57 210 187 204 206 223 247 74 146 195 249 215 221 230 237 232 222 241 217 213 202 175 240 234 232 242 238 227 224 247 238 236 239 262 271 281 286 271 259 284 287 279 228 147 239 280 282 264 264 277 283
340 62 36 54 17 6 33 205 19 176 151 146 173 193 150 217 192 121 184 268 205 80 258 13 326 185 60 111 357 10 299 96 211 306 170 243 248 86 342 260 206 212 231 72 199 156 199 222 229 234 263 267 272 299 50 56 351 302 280 231 237 239 260 263 290 261 242 256 246 246 259 266 258 263 272 277 284 286 289 300 310 299 259 232 248 260 259 265
300 36 9 131 103 328 317 347 350 316 194 161 207 152 193 222 234 328 160 257 175 201 207 211 179 167 203 150 220 238 219 309 263 250 230 241 277 327 312 341 251 272 22 196 140 67 200 250 232 245 249 253 267 271 276 280 276 264 267 269 261 250 253 253 240 259 336 310 267 242 255 271 276 288 289 288 285 286 289 296 301 301 303 311 325 316 290 272
61 50 17 15 301 139 223 245 207 264 2 179 205 151 186 197 196 221 162 233 73 220 222 118 208 227 205 195 177 210 160 225 216 228 236 238 275 316 301 234 248 205 198 200 199 200 206 245 241 231 253 256 255 261 256 248 236 242 250 254 261 261 253 245 244 246 255 247 272 327 304 278 262 276 285 284 281 283 287 289 288 291 292 295 296 301 305 300
44 352 27 333 243 347 282 338 185 191 186 199 186 178 186 189 207 203 215 165 174 217 202 241 199 207 215 203 198 239 161 227 237 234 242 186 216 184 242 299 252 198 181 196 182 190 201 245 247 220 245 246 247 250 249 250 244 237 241 246 251 254 254 253 253 248 245 252 262 267 271 272 275 276 275 280 283 280 275 269 271 267 269 270 267 271 272 276
34 3 338 349 287 287 281 282 206 172 203 204 212 209 197 198 217 196 242 206 232 228 125 234 235 196 210 209 217 235 219 217 247 267 165 208 231 207 235 230 252 80 224 202 177 216 214 232 216 229 237 245 247 248 246 241 245 253 248 241 239 247 257 256 258 259 262 259 256 256 257 265 259 255 264 275 280 277 263 252 252 252 253 253 255 258 255 254
320 316 311 333 335 335 301 282 200 201 217 197 229 223 201 215 230 205 217 192 216 218 180 221 217 221 212 218 223 233 239 238 243 249 233 187 255 196 217 217 216 215 203 212 192 239 202 250 255 259 265 260 242 239 240 241 237 239 249 250 251 250 252 248 245 235 236 245 240 240 245 252 258 249 243 245 259 264 264 260 257 254 246 245 243 247 251 250
273 238 321 284 307 9 358 334 274 158 224 244 248 253 254 242 229 135 248 221 224 232 229 226 207 220 225 226 234 237 241 240 249 255 255 241 249 260 220 251 188 228 186 216 197 190 190 223 238 232 243 249 251 245 244 248 250 244 236 240 243 241 238 241 243 237 234 238 246 247 252 252 254 250 255 247 249 258 263 265 264 256 247 243 246 247 250 253